Time,TemperatureF,DewpointF,PressureIn,WindDirection,WindDirectionDegrees,WindSpeedMPH,WindSpeedGustMPH,Humidity,HourlyPrecipIn,Conditions,Clouds,dailyrainin,SoftwareType,DateUTC
2013-02-16 00:01:00,63.9,51.9,29.91,North,-999,0.0,0.0,65,0.00,,,-99.99,WeatherLink 5.5,2013-02-16 05:01:00,
2013-02-16 00:11:00,63.9,52.3,29.92,North,-999,0.0,0.0,66,0.00,,,-99.99,WeatherLink 5.5,2013-02-16 05:11:00,
2013-02-16 00:16:00,64.0,52.4,29.91,NNW,337,0.0,3.0,66,0.00,,,-99.99,WeatherLink 5.5,2013-02-16 05:16:00,
2013-02-16 00:21:00,63.9,52.3,29.93,NNW,337,0.0,4.0,66,0.00,,,-99.99,WeatherLink 5.5,2013-02-16 05:21:00,
2013-02-16 00:26:00,63.9,52.3,29.93,NNW,337,0.0,1.0,66,0.00,,,-99.99,WeatherLink 5.5,2013-02-16 05:26:00,
2013-02-16 00:36:00,63.7,52.1,29.92,NNW,337,0.0,3.0,66,0.00,,,-99.99,WeatherLink 5.5,2013-02-16 05:36:00,
2013-02-16 00:45:00,63.7,52.1,29.91,North,-999,0.0,0.0,66,0.00,,,-99.99,WeatherLink 5.5,2013-02-16 05:45:00,
2013-02-16 00:51:00,63.7,52.1,29.92,NNW,337,0.0,3.0,66,0.00,,,-99.99,WeatherLink 5.5,2013-02-16 05:51:00,
2013-02-16 01:01:00,63.5,51.9,29.91,NNW,337,0.0,3.0,66,0.00,,,-99.99,WeatherLink 5.5,2013-02-16 06:01:00,
2013-02-16 01:10:00,63.4,51.8,29.91,NNW,337,0.0,2.0,66,0.00,,,-99.99,WeatherLink 5.5,2013-02-16 06:10:00,
2013-02-16 01:16:00,63.4,51.8,29.91,NNW,337,0.0,2.0,66,0.00,,,-99.99,WeatherLink 5.5,2013-02-16 06:16:00,
2013-02-16 01:21:00,63.3,51.7,29.92,NNW,337,0.0,3.0,66,0.00,,,-99.99,WeatherLink 5.5,2013-02-16 06:21:00,
2013-02-16 01:26:00,63.3,52.2,29.91,North,-999,0.0,0.0,67,0.00,,,-99.99,WeatherLink 5.5,2013-02-16 06:26:00,
2013-02-16 01:35:00,63.4,52.2,29.93,North,-999,0.0,1.0,67,0.00,,,-99.99,WeatherLink 5.5,2013-02-16 06:35:00,
2013-02-16 01:41:00,63.4,52.2,29.93,NNW,337,0.0,3.0,67,0.00,,,-99.99,WeatherLink 5.5,2013-02-16 06:41:00,
2013-02-16 01:50:00,63.2,52.1,29.91,NNW,337,0.0,3.0,67,0.00,,,-99.99,WeatherLink 5.5,2013-02-16 06:50:00,
2013-02-16 01:56:00,63.2,52.1,29.90,NNW,337,0.0,2.0,67,0.00,,,-99.99,WeatherLink 5.5,2013-02-16 06:56:00,
2013-02-16 02:06:00,63.1,52.0,29.90,NNW,337,1.0,4.0,67,0.01,,,-99.99,WeatherLink 5.5,2013-02-16 07:06:00,
2013-02-16 02:15:00,63.0,51.9,29.90,North,-999,0.0,0.0,67,0.01,,,-99.99,WeatherLink 5.5,2013-02-16 07:15:00,
2013-02-16 02:21:00,63.0,51.9,29.90,NNW,337,0.0,6.0,67,0.01,,,-99.99,WeatherLink 5.5,2013-02-16 07:21:00,
2013-02-16 02:31:00,63.0,52.3,29.89,North,-999,0.0,0.0,68,0.01,,,-99.99,WeatherLink 5.5,2013-02-16 07:31:00,
2013-02-16 02:40:00,62.9,52.2,29.90,NNW,337,1.0,3.0,68,0.01,,,-99.99,WeatherLink 5.5,2013-02-16 07:40:00,
2013-02-16 02:46:00,62.9,52.2,29.89,NNW,337,0.0,3.0,68,0.01,,,-99.99,WeatherLink 5.5,2013-02-16 07:46:00,
2013-02-16 02:56:00,62.9,52.2,29.88,North,-999,0.0,0.0,68,0.01,,,-99.99,WeatherLink 5.5,2013-02-16 07:56:00,
2013-02-16 03:06:00,62.9,52.6,29.88,North,-999,0.0,0.0,69,0.00,,,-99.99,WeatherLink 5.5,2013-02-16 08:06:00,
2013-02-16 03:16:00,62.9,52.6,29.86,North,-999,0.0,0.0,69,0.00,,,-99.99,WeatherLink 5.5,2013-02-16 08:16:00,
2013-02-16 03:21:00,62.9,52.6,29.88,North,-999,0.0,0.0,69,0.00,,,-99.99,WeatherLink 5.5,2013-02-16 08:21:00,
2013-02-16 03:30:00,63.0,52.7,29.87,North,-999,0.0,0.0,69,0.00,,,-99.99,WeatherLink 5.5,2013-02-16 08:30:00,
2013-02-16 03:36:00,62.9,52.6,29.87,North,-999,0.0,0.0,69,0.00,,,-99.99,WeatherLink 5.5,2013-02-16 08:36:00,
2013-02-16 03:46:00,62.9,52.6,29.88,North,-999,0.0,0.0,69,0.00,,,-99.99,WeatherLink 5.5,2013-02-16 08:46:00,
2013-02-16 03:55:00,62.9,52.6,29.87,NNW,337,0.0,1.0,69,0.00,,,-99.99,WeatherLink 5.5,2013-02-16 08:55:00,
2013-02-16 04:01:00,62.9,52.6,29.87,NNW,337,0.0,1.0,69,0.00,,,-99.99,WeatherLink 5.5,2013-02-16 09:01:00,
2013-02-16 04:10:00,62.9,53.0,29.86,NNW,337,0.0,4.0,70,0.00,,,-99.99,WeatherLink 5.5,2013-02-16 09:10:00,
2013-02-16 04:15:00,62.9,53.0,29.87,NNW,337,0.0,3.0,70,0.00,,,-99.99,WeatherLink 5.5,2013-02-16 09:15:00,
2013-02-16 04:25:00,62.8,52.9,29.86,NNW,337,1.0,5.0,70,0.00,,,-99.99,WeatherLink 5.5,2013-02-16 09:25:00,
2013-02-16 04:31:00,62.8,52.9,29.86,NNW,337,1.0,6.0,70,0.00,,,-99.99,WeatherLink 5.5,2013-02-16 09:31:00,
2013-02-16 04:40:00,62.8,53.3,29.86,NNW,337,0.0,5.0,71,0.00,,,-99.99,WeatherLink 5.5,2013-02-16 09:40:00,
2013-02-16 04:51:00,62.8,53.3,29.85,NNW,337,0.0,3.0,71,0.00,,,-99.99,WeatherLink 5.5,2013-02-16 09:51:00,
2013-02-16 04:56:00,62.8,53.3,29.86,NNW,337,0.0,3.0,71,0.00,,,-99.99,WeatherLink 5.5,2013-02-16 09:56:00,
2013-02-16 05:06:00,62.8,53.3,29.86,North,-999,0.0,0.0,71,0.00,,,-99.99,WeatherLink 5.5,2013-02-16 10:06:00,
2013-02-16 05:16:00,62.8,53.3,29.85,NNW,337,0.0,1.0,71,0.00,,,-99.99,WeatherLink 5.5,2013-02-16 10:16:00,
2013-02-16 05:25:00,62.8,53.6,29.86,NNW,337,1.0,4.0,72,0.00,,,-99.99,WeatherLink 5.5,2013-02-16 10:25:00,
2013-02-16 05:31:00,62.8,53.6,29.87,NNW,337,0.0,3.0,72,0.00,,,-99.99,WeatherLink 5.5,2013-02-16 10:31:00,
2013-02-16 05:41:00,62.8,53.6,29.86,North,-999,0.0,0.0,72,0.00,,,-99.99,WeatherLink 5.5,2013-02-16 10:41:00,
2013-02-16 05:46:00,62.8,53.6,29.85,NNW,337,0.0,1.0,72,0.00,,,-99.99,WeatherLink 5.5,2013-02-16 10:46:00,
2013-02-16 05:56:00,62.7,53.5,29.87,North,-999,0.0,0.0,72,0.00,,,-99.99,WeatherLink 5.5,2013-02-16 10:56:00,
2013-02-16 06:01:00,62.6,53.4,29.87,NNW,337,0.0,3.0,72,0.00,,,-99.99,WeatherLink 5.5,2013-02-16 11:01:00,
2013-02-16 06:10:00,62.5,53.3,29.87,NNW,337,0.0,3.0,72,0.00,,,-99.99,WeatherLink 5.5,2013-02-16 11:10:00,
2013-02-16 06:16:00,62.5,53.3,29.87,NNW,337,1.0,3.0,72,0.00,,,-99.99,WeatherLink 5.5,2013-02-16 11:16:00,
2013-02-16 06:25:00,62.5,53.3,29.87,NNW,337,1.0,6.0,72,0.00,,,-99.99,WeatherLink 5.5,2013-02-16 11:25:00,
2013-02-16 06:31:00,62.5,53.3,29.88,NNW,337,0.0,4.0,72,0.00,,,-99.99,WeatherLink 5.5,2013-02-16 11:31:00,
2013-02-16 06:36:00,62.6,53.4,29.87,NNW,337,1.0,5.0,72,0.00,,,-99.99,WeatherLink 5.5,2013-02-16 11:36:00,
2013-02-16 06:41:00,62.6,53.4,29.88,NNW,337,2.0,7.0,72,0.00,,,-99.99,WeatherLink 5.5,2013-02-16 11:41:00,
2013-02-16 06:51:00,62.6,53.4,29.88,NNW,337,1.0,6.0,72,0.00,,,-99.99,WeatherLink 5.5,2013-02-16 11:51:00,
2013-02-16 06:56:00,62.6,53.4,29.88,NW,315,1.0,7.0,72,0.00,,,-99.99,WeatherLink 5.5,2013-02-16 11:56:00,
2013-02-16 07:05:00,62.6,53.4,29.89,NW,315,2.0,7.0,72,0.00,,,-99.99,WeatherLink 5.5,2013-02-16 12:05:00,
2013-02-16 07:11:00,62.6,53.4,29.89,NW,315,0.0,4.0,72,0.00,,,-99.99,WeatherLink 5.5,2013-02-16 12:11:00,
2013-02-16 07:21:00,62.6,53.4,29.88,NW,315,1.0,6.0,72,0.00,,,-99.99,WeatherLink 5.5,2013-02-16 12:21:00,
2013-02-16 07:31:00,62.6,53.4,29.88,NW,315,0.0,4.0,72,0.00,,,-99.99,WeatherLink 5.5,2013-02-16 12:31:00,
2013-02-16 07:36:00,62.6,53.4,29.87,NW,315,1.0,6.0,72,0.00,,,-99.99,WeatherLink 5.5,2013-02-16 12:36:00,
2013-02-16 07:46:00,62.7,53.5,29.88,NW,315,0.0,4.0,72,0.00,,,-99.99,WeatherLink 5.5,2013-02-16 12:46:00,
2013-02-16 07:55:00,62.7,53.5,29.87,NW,315,1.0,6.0,72,0.00,,,-99.99,WeatherLink 5.5,2013-02-16 12:55:00,
2013-02-16 08:01:00,62.8,53.6,29.90,NW,315,1.0,5.0,72,0.00,,,-99.99,WeatherLink 5.5,2013-02-16 13:01:00,
2013-02-16 08:10:00,62.8,53.6,29.89,NW,315,1.0,7.0,72,0.00,,,-99.99,WeatherLink 5.5,2013-02-16 13:10:00,
2013-02-16 08:16:00,62.9,53.7,29.88,NW,315,1.0,5.0,72,0.00,,,-99.99,WeatherLink 5.5,2013-02-16 13:16:00,
2013-02-16 08:26:00,63.0,53.8,29.88,NW,315,2.0,6.0,72,0.00,,,-99.99,WeatherLink 5.5,2013-02-16 13:26:00,
2013-02-16 08:36:00,63.2,54.0,29.89,NW,315,1.0,8.0,72,0.00,,,-99.99,WeatherLink 5.5,2013-02-16 13:36:00,
2013-02-16 08:46:00,63.4,54.2,29.88,NW,315,3.0,9.0,72,0.00,,,-99.99,WeatherLink 5.5,2013-02-16 13:46:00,
2013-02-16 08:55:00,63.6,54.4,29.89,NW,315,3.0,10.0,72,0.00,,,-99.99,WeatherLink 5.5,2013-02-16 13:55:00,
2013-02-16 09:06:00,63.9,54.7,29.89,NW,315,1.0,8.0,72,0.00,,,-99.99,WeatherLink 5.5,2013-02-16 14:06:00,
2013-02-16 09:15:00,64.1,54.9,29.89,NW,315,2.0,9.0,72,0.00,,,-99.99,WeatherLink 5.5,2013-02-16 14:15:00,
2013-02-16 09:21:00,64.1,54.9,29.89,NW,315,4.0,9.0,72,0.00,,,-99.99,WeatherLink 5.5,2013-02-16 14:21:00,
2013-02-16 09:31:00,64.2,55.0,29.90,NW,315,1.0,6.0,72,0.00,,,-99.99,WeatherLink 5.5,2013-02-16 14:31:00,
2013-02-16 09:41:00,64.8,56.3,29.90,NW,315,3.0,8.0,74,0.00,,,-99.99,WeatherLink 5.5,2013-02-16 14:41:00,
2013-02-16 09:46:00,65.1,56.6,29.90,NW,315,0.0,7.0,74,0.00,,,-99.99,WeatherLink 5.5,2013-02-16 14:46:00,
2013-02-16 09:56:00,65.6,57.1,29.92,WNW,292,3.0,9.0,74,0.00,,,-99.99,WeatherLink 5.5,2013-02-16 14:56:00,
2013-02-16 10:06:00,65.8,57.3,29.90,WNW,292,3.0,8.0,74,0.00,,,-99.99,WeatherLink 5.5,2013-02-16 15:06:00,
2013-02-16 10:16:00,66.2,57.7,29.91,West,270,2.0,8.0,74,0.00,,,-99.99,WeatherLink 5.5,2013-02-16 15:16:00,
2013-02-16 10:26:00,66.4,57.9,29.91,WNW,292,2.0,8.0,74,0.00,,,-99.99,WeatherLink 5.5,2013-02-16 15:26:00,
2013-02-16 10:31:00,66.5,58.0,29.91,WNW,292,3.0,8.0,74,0.00,,,-99.99,WeatherLink 5.5,2013-02-16 15:31:00,
2013-02-16 10:41:00,67.0,58.4,29.90,WNW,292,2.0,8.0,74,0.00,,,-99.99,WeatherLink 5.5,2013-02-16 15:41:00,
2013-02-16 10:51:00,67.4,58.8,29.91,West,270,3.0,9.0,74,0.00,,,-99.99,WeatherLink 5.5,2013-02-16 15:51:00,
2013-02-16 10:56:00,67.4,58.4,29.94,West,270,3.0,8.0,73,0.00,,,-99.99,WeatherLink 5.5,2013-02-16 15:56:00,
2013-02-16 11:06:00,67.4,58.1,29.92,WNW,292,3.0,9.0,72,0.00,,,-99.99,WeatherLink 5.5,2013-02-16 16:06:00,
2013-02-16 11:11:00,67.3,57.6,29.92,West,270,3.0,11.0,71,0.00,,,-99.99,WeatherLink 5.5,2013-02-16 16:11:00,
2013-02-16 11:16:00,67.4,57.7,29.91,West,270,4.0,10.0,71,0.00,,,-99.99,WeatherLink 5.5,2013-02-16 16:16:00,
2013-02-16 11:26:00,67.9,58.1,29.91,West,270,6.0,14.0,71,0.00,,,-99.99,WeatherLink 5.5,2013-02-16 16:26:00,
2013-02-16 11:36:00,68.3,58.5,29.91,West,270,5.0,12.0,71,0.00,,,-99.99,WeatherLink 5.5,2013-02-16 16:36:00,
2013-02-16 11:41:00,68.5,58.7,29.90,WSW,247,5.0,14.0,71,0.00,,,-99.99,WeatherLink 5.5,2013-02-16 16:41:00,
2013-02-16 11:51:00,68.6,58.4,29.90,West,270,6.0,13.0,70,0.00,,,-99.99,WeatherLink 5.5,2013-02-16 16:51:00,
2013-02-16 12:01:00,68.7,58.1,29.90,WSW,247,6.0,14.0,69,0.00,,,-99.99,WeatherLink 5.5,2013-02-16 17:01:00,
2013-02-16 12:05:00,69.1,58.5,29.91,WSW,247,5.0,19.0,69,0.00,,,-99.99,WeatherLink 5.5,2013-02-16 17:05:00,
2013-02-16 12:10:00,69.2,58.6,29.90,West,270,5.0,12.0,69,0.00,,,-99.99,WeatherLink 5.5,2013-02-16 17:10:00,
2013-02-16 12:15:00,69.4,58.4,29.90,West,270,6.0,15.0,68,0.00,,,-99.99,WeatherLink 5.5,2013-02-16 17:15:00,
2013-02-16 12:20:00,69.4,58.4,29.90,West,270,6.0,15.0,68,0.00,,,-99.99,WeatherLink 5.5,2013-02-16 17:20:00,
2013-02-16 12:25:00,69.8,58.8,29.89,WSW,247,5.0,13.0,68,0.00,,,-99.99,WeatherLink 5.5,2013-02-16 17:25:00,
2013-02-16 12:30:00,69.9,58.4,29.90,West,270,6.0,13.0,67,0.00,,,-99.99,WeatherLink 5.5,2013-02-16 17:30:00,
2013-02-16 12:35:00,70.0,58.5,29.90,West,270,6.0,14.0,67,0.00,,,-99.99,WeatherLink 5.5,2013-02-16 17:35:00,
2013-02-16 12:40:00,70.0,58.1,29.91,WSW,247,6.0,16.0,66,0.00,,,-99.99,WeatherLink 5.5,2013-02-16 17:40:00,
2013-02-16 12:45:00,69.7,57.8,29.89,WNW,292,7.0,17.0,66,0.00,,,-99.99,WeatherLink 5.5,2013-02-16 17:45:00,
2013-02-16 12:50:00,69.6,57.3,29.88,West,270,7.0,14.0,65,0.00,,,-99.99,WeatherLink 5.5,2013-02-16 17:50:00,
2013-02-16 12:55:00,69.6,57.3,29.87,WSW,247,7.0,17.0,65,0.00,,,-99.99,WeatherLink 5.5,2013-02-16 17:55:00,
2013-02-16 13:00:00,69.5,56.8,29.88,West,270,6.0,14.0,64,0.00,,,-99.99,WeatherLink 5.5,2013-02-16 18:00:00,
2013-02-16 13:05:00,69.3,56.6,29.88,West,270,6.0,13.0,64,0.00,,,-99.99,WeatherLink 5.5,2013-02-16 18:05:00,
2013-02-16 13:10:00,69.6,56.9,29.86,WSW,247,4.0,13.0,64,0.00,,,-99.99,WeatherLink 5.5,2013-02-16 18:10:00,
2013-02-16 13:15:00,70.4,57.6,29.85,WSW,247,7.0,17.0,64,0.00,,,-99.99,WeatherLink 5.5,2013-02-16 18:15:00,
2013-02-16 13:20:00,70.5,57.3,29.87,NW,315,7.0,15.0,63,0.00,,,-99.99,WeatherLink 5.5,2013-02-16 18:20:00,
2013-02-16 13:25:00,70.4,57.2,29.86,West,270,6.0,13.0,63,0.00,,,-99.99,WeatherLink 5.5,2013-02-16 18:25:00,
2013-02-16 13:30:00,71.0,57.8,29.87,West,270,5.0,18.0,63,0.00,,,-99.99,WeatherLink 5.5,2013-02-16 18:30:00,
2013-02-16 13:35:00,71.2,57.5,29.86,WNW,292,8.0,18.0,62,0.00,,,-99.99,WeatherLink 5.5,2013-02-16 18:35:00,
2013-02-16 13:40:00,70.6,56.0,29.87,West,270,7.0,18.0,60,0.00,,,-99.99,WeatherLink 5.5,2013-02-16 18:40:00,
2013-02-16 13:45:00,70.4,55.8,29.87,West,270,8.0,18.0,60,0.00,,,-99.99,WeatherLink 5.5,2013-02-16 18:45:00,
2013-02-16 13:50:00,70.4,55.4,29.86,West,270,9.0,17.0,59,0.00,,,-99.99,WeatherLink 5.5,2013-02-16 18:50:00,
2013-02-16 13:55:00,70.4,55.4,29.89,West,270,9.0,18.0,59,0.00,,,-99.99,WeatherLink 5.5,2013-02-16 18:55:00,
2013-02-16 14:00:00,70.3,54.3,29.88,West,270,9.0,21.0,57,0.00,,,-99.99,WeatherLink 5.5,2013-02-16 19:00:00,
2013-02-16 14:05:00,70.2,54.2,29.87,West,270,9.0,18.0,57,0.00,,,-99.99,WeatherLink 5.5,2013-02-16 19:05:00,
2013-02-16 14:10:00,70.0,53.6,29.85,WNW,292,7.0,14.0,56,0.00,,,-99.99,WeatherLink 5.5,2013-02-16 19:10:00,
2013-02-16 14:15:00,69.7,52.8,29.87,West,270,7.0,13.0,55,0.00,,,-99.99,WeatherLink 5.5,2013-02-16 19:15:00,
2013-02-16 14:20:00,69.7,52.8,29.86,West,270,8.0,15.0,55,0.00,,,-99.99,WeatherLink 5.5,2013-02-16 19:20:00,
2013-02-16 14:25:00,69.6,52.7,29.85,West,270,6.0,16.0,55,0.00,,,-99.99,WeatherLink 5.5,2013-02-16 19:25:00,
2013-02-16 14:30:00,70.0,52.6,29.88,West,270,9.0,21.0,54,0.00,,,-99.99,WeatherLink 5.5,2013-02-16 19:30:00,
2013-02-16 14:35:00,70.3,52.9,29.90,WSW,247,9.0,17.0,54,0.00,,,-99.99,WeatherLink 5.5,2013-02-16 19:35:00,
2013-02-16 14:40:00,70.2,52.3,29.85,WNW,292,8.0,20.0,53,0.00,,,-99.99,WeatherLink 5.5,2013-02-16 19:40:00,
2013-02-16 14:45:00,69.9,50.9,29.89,West,270,11.0,20.0,51,0.00,,,-99.99,WeatherLink 5.5,2013-02-16 19:45:00,
2013-02-16 14:50:00,69.7,50.8,29.87,WNW,292,11.0,21.0,51,0.00,,,-99.99,WeatherLink 5.5,2013-02-16 19:50:00,
2013-02-16 14:55:00,69.7,50.2,29.87,WNW,292,9.0,19.0,50,0.00,,,-99.99,WeatherLink 5.5,2013-02-16 19:55:00,
2013-02-16 15:00:00,69.8,50.3,29.90,WNW,292,9.0,27.0,50,0.00,,,-99.99,WeatherLink 5.5,2013-02-16 20:00:00,
2013-02-16 15:05:00,69.7,49.7,29.88,West,270,10.0,24.0,49,0.00,,,-99.99,WeatherLink 5.5,2013-02-16 20:05:00,
2013-02-16 15:10:00,70.0,50.0,29.86,West,270,9.0,18.0,49,0.00,,,-99.99,WeatherLink 5.5,2013-02-16 20:10:00,
2013-02-16 15:15:00,70.1,49.5,29.87,West,270,9.0,23.0,48,0.00,,,-99.99,WeatherLink 5.5,2013-02-16 20:15:00,
2013-02-16 15:20:00,70.2,49.6,29.87,West,270,8.0,20.0,48,0.00,,,-99.99,WeatherLink 5.5,2013-02-16 20:20:00,
2013-02-16 15:25:00,70.4,49.2,29.87,West,270,10.0,19.0,47,0.00,,,-99.99,WeatherLink 5.5,2013-02-16 20:25:00,
2013-02-16 15:30:00,70.0,48.8,29.87,WNW,292,9.0,21.0,47,0.00,,,-99.99,WeatherLink 5.5,2013-02-16 20:30:00,
2013-02-16 15:35:00,69.6,49.0,29.88,West,270,10.0,24.0,48,0.00,,,-99.99,WeatherLink 5.5,2013-02-16 20:35:00,
2013-02-16 15:40:00,69.4,49.4,29.88,West,270,10.0,24.0,49,0.00,,,-99.99,WeatherLink 5.5,2013-02-16 20:40:00,
2013-02-16 15:45:00,69.2,49.8,29.88,West,270,9.0,20.0,50,0.00,,,-99.99,WeatherLink 5.5,2013-02-16 20:45:00,
2013-02-16 15:50:00,69.2,51.3,29.88,West,270,10.0,21.0,53,0.00,,,-99.99,WeatherLink 5.5,2013-02-16 20:50:00,
2013-02-16 15:55:00,69.2,52.3,29.89,WNW,292,6.0,16.0,55,0.00,,,-99.99,WeatherLink 5.5,2013-02-16 20:55:00,
2013-02-16 16:00:00,69.2,55.2,29.89,WNW,292,10.0,20.0,61,0.00,,,-99.99,WeatherLink 5.5,2013-02-16 21:00:00,
2013-02-16 16:05:00,68.7,57.3,29.89,West,270,7.0,19.0,67,0.00,,,-99.99,WeatherLink 5.5,2013-02-16 21:05:00,
2013-02-16 16:10:00,68.4,58.2,29.89,West,270,9.0,24.0,70,0.00,,,-99.99,WeatherLink 5.5,2013-02-16 21:10:00,
2013-02-16 16:15:00,68.3,59.7,29.89,West,270,9.0,18.0,74,0.00,,,-99.99,WeatherLink 5.5,2013-02-16 21:15:00,
2013-02-16 16:20:00,68.2,62.1,29.89,West,270,8.0,19.0,81,0.00,,,-99.99,WeatherLink 5.5,2013-02-16 21:20:00,
2013-02-16 16:25:00,67.9,63.6,29.89,WNW,292,8.0,17.0,86,0.00,,,-99.99,WeatherLink 5.5,2013-02-16 21:25:00,
2013-02-16 16:30:00,67.8,65.7,29.89,West,270,5.0,19.0,93,0.00,,,-99.99,WeatherLink 5.5,2013-02-16 21:30:00,
2013-02-16 16:35:00,67.7,67.1,29.89,WNW,292,5.0,15.0,98,0.00,,,-99.99,WeatherLink 5.5,2013-02-16 21:35:00,
2013-02-16 16:40:00,67.6,67.6,29.89,West,270,6.0,14.0,100,0.00,,,-99.99,WeatherLink 5.5,2013-02-16 21:40:00,
2013-02-16 16:45:00,67.5,67.5,29.89,West,270,5.0,13.0,100,0.00,,,-99.99,WeatherLink 5.5,2013-02-16 21:45:00,
2013-02-16 16:50:00,67.6,67.6,29.89,West,270,6.0,15.0,100,0.00,,,-99.99,WeatherLink 5.5,2013-02-16 21:50:00,
2013-02-16 16:55:00,67.5,67.5,29.89,WNW,292,8.0,16.0,100,0.00,,,-99.99,WeatherLink 5.5,2013-02-16 21:55:00,
2013-02-16 17:00:00,67.3,67.3,29.89,West,270,9.0,20.0,100,0.00,,,-99.99,WeatherLink 5.5,2013-02-16 22:00:00,
2013-02-16 17:05:00,67.2,67.2,29.89,West,270,8.0,17.0,100,0.00,,,-99.99,WeatherLink 5.5,2013-02-16 22:05:00,
2013-02-16 17:10:00,67.1,67.1,29.89,West,270,7.0,18.0,100,0.00,,,-99.99,WeatherLink 5.5,2013-02-16 22:10:00,
2013-02-16 17:15:00,67.0,67.0,29.90,West,270,8.0,16.0,100,0.00,,,-99.99,WeatherLink 5.5,2013-02-16 22:15:00,
2013-02-16 17:20:00,67.0,67.0,29.90,West,270,6.0,16.0,100,0.00,,,-99.99,WeatherLink 5.5,2013-02-16 22:20:00,
2013-02-16 17:25:00,66.8,66.8,29.90,WNW,292,6.0,14.0,100,0.00,,,-99.99,WeatherLink 5.5,2013-02-16 22:25:00,
2013-02-16 17:30:00,66.6,66.6,29.90,West,270,6.0,14.0,100,0.00,,,-99.99,WeatherLink 5.5,2013-02-16 22:30:00,
2013-02-16 17:35:00,66.5,66.5,29.91,West,270,5.0,11.0,100,0.00,,,-99.99,WeatherLink 5.5,2013-02-16 22:35:00,
2013-02-16 17:40:00,66.3,66.3,29.90,WNW,292,4.0,14.0,100,0.00,,,-99.99,WeatherLink 5.5,2013-02-16 22:40:00,
2013-02-16 17:45:00,66.1,66.1,29.91,West,270,7.0,12.0,100,0.00,,,-99.99,WeatherLink 5.5,2013-02-16 22:45:00,
2013-02-16 17:50:00,65.9,65.9,29.91,West,270,6.0,15.0,100,0.00,,,-99.99,WeatherLink 5.5,2013-02-16 22:50:00,
2013-02-16 17:55:00,65.7,65.7,29.91,West,270,6.0,12.0,100,0.00,,,-99.99,WeatherLink 5.5,2013-02-16 22:55:00,
2013-02-16 18:00:00,65.6,65.6,29.91,West,270,4.0,19.0,100,0.00,,,-99.99,WeatherLink 5.5,2013-02-16 23:00:00,
2013-02-16 18:05:00,65.4,65.4,29.91,West,270,5.0,12.0,100,0.00,,,-99.99,WeatherLink 5.5,2013-02-16 23:05:00,
2013-02-16 18:10:00,65.3,65.3,29.92,West,270,5.0,14.0,100,0.00,,,-99.99,WeatherLink 5.5,2013-02-16 23:10:00,
2013-02-16 18:15:00,65.2,65.2,29.91,WNW,292,4.0,11.0,100,0.00,,,-99.99,WeatherLink 5.5,2013-02-16 23:15:00,
2013-02-16 18:20:00,65.1,65.1,29.92,WSW,247,5.0,15.0,100,0.00,,,-99.99,WeatherLink 5.5,2013-02-16 23:20:00,
2013-02-16 18:25:00,64.9,64.9,29.92,West,270,7.0,19.0,100,0.00,,,-99.99,WeatherLink 5.5,2013-02-16 23:25:00,
2013-02-16 18:30:00,64.8,64.8,29.93,WNW,292,8.0,18.0,100,0.00,,,-99.99,WeatherLink 5.5,2013-02-16 23:30:00,
2013-02-16 18:35:00,64.6,64.6,29.93,WNW,292,8.0,16.0,100,0.00,,,-99.99,WeatherLink 5.5,2013-02-16 23:35:00,
2013-02-16 18:40:00,64.3,64.3,29.93,West,270,8.0,21.0,100,0.00,,,-99.99,WeatherLink 5.5,2013-02-16 23:40:00,
2013-02-16 18:45:00,64.1,64.1,29.93,WNW,292,8.0,19.0,100,0.00,,,-99.99,WeatherLink 5.5,2013-02-16 23:45:00,
2013-02-16 18:50:00,63.7,63.7,29.93,West,270,6.0,17.0,100,0.00,,,-99.99,WeatherLink 5.5,2013-02-16 23:50:00,
2013-02-16 18:55:00,63.4,63.4,29.93,West,270,5.0,12.0,100,0.00,,,-99.99,WeatherLink 5.5,2013-02-16 23:55:00,
2013-02-16 19:00:00,63.1,63.1,29.93,West,270,5.0,12.0,100,0.00,,,-99.99,WeatherLink 5.5,2013-02-17 00:00:00,
2013-02-16 19:05:00,62.9,62.9,29.93,West,270,6.0,14.0,100,0.00,,,-99.99,WeatherLink 5.5,2013-02-17 00:05:00,
2013-02-16 19:10:00,62.7,62.7,29.94,West,270,6.0,15.0,100,0.00,,,-99.99,WeatherLink 5.5,2013-02-17 00:10:00,
2013-02-16 19:15:00,62.5,62.5,29.94,WNW,292,7.0,13.0,100,0.00,,,-99.99,WeatherLink 5.5,2013-02-17 00:15:00,
2013-02-16 19:20:00,62.3,62.3,29.94,WSW,247,2.0,11.0,100,0.00,,,-99.99,WeatherLink 5.5,2013-02-17 00:20:00,
2013-02-16 19:25:00,62.0,62.0,29.94,WNW,292,6.0,15.0,100,0.00,,,-99.99,WeatherLink 5.5,2013-02-17 00:25:00,
2013-02-16 19:30:00,62.0,62.0,29.95,WNW,292,6.0,14.0,100,0.00,,,-99.99,WeatherLink 5.5,2013-02-17 00:30:00,
2013-02-16 19:35:00,61.9,61.9,29.95,WNW,292,7.0,17.0,100,0.00,,,-99.99,WeatherLink 5.5,2013-02-17 00:35:00,
2013-02-16 19:40:00,61.7,61.7,29.96,WNW,292,7.0,19.0,100,0.00,,,-99.99,WeatherLink 5.5,2013-02-17 00:40:00,
2013-02-16 19:45:00,61.6,61.6,29.96,West,270,7.0,19.0,100,0.00,,,-99.99,WeatherLink 5.5,2013-02-17 00:45:00,
2013-02-16 19:50:00,61.5,61.5,29.97,WSW,247,6.0,16.0,100,0.00,,,-99.99,WeatherLink 5.5,2013-02-17 00:50:00,
2013-02-16 19:55:00,61.3,61.3,29.97,West,270,6.0,12.0,100,0.00,,,-99.99,WeatherLink 5.5,2013-02-17 00:55:00,
2013-02-16 20:00:00,61.1,61.1,29.97,West,270,7.0,19.0,100,0.00,,,-99.99,WeatherLink 5.5,2013-02-17 01:00:00,
2013-02-16 20:05:00,61.0,61.0,29.98,West,270,7.0,17.0,100,0.00,,,-99.99,WeatherLink 5.5,2013-02-17 01:05:00,
2013-02-16 20:10:00,60.8,60.8,29.98,West,270,8.0,19.0,100,0.00,,,-99.99,WeatherLink 5.5,2013-02-17 01:10:00,
2013-02-16 20:15:00,60.7,60.7,29.99,WNW,292,8.0,19.0,100,0.00,,,-99.99,WeatherLink 5.5,2013-02-17 01:15:00,
2013-02-16 20:20:00,60.4,60.4,29.99,West,270,8.0,16.0,100,0.00,,,-99.99,WeatherLink 5.5,2013-02-17 01:20:00,
2013-02-16 20:25:00,60.2,60.2,29.99,WNW,292,8.0,18.0,100,0.00,,,-99.99,WeatherLink 5.5,2013-02-17 01:25:00,
2013-02-16 20:30:00,60.0,60.0,29.99,West,270,8.0,18.0,100,0.00,,,-99.99,WeatherLink 5.5,2013-02-17 01:30:00,
2013-02-16 20:35:00,59.8,59.8,30.00,WNW,292,10.0,25.0,100,0.00,,,-99.99,WeatherLink 5.5,2013-02-17 01:35:00,
2013-02-16 20:40:00,59.6,59.6,30.00,WNW,292,9.0,21.0,100,0.00,,,-99.99,WeatherLink 5.5,2013-02-17 01:40:00,
2013-02-16 20:45:00,59.3,59.3,30.00,WNW,292,10.0,21.0,100,0.00,,,-99.99,WeatherLink 5.5,2013-02-17 01:45:00,
2013-02-16 20:50:00,59.1,59.1,30.01,West,270,7.0,16.0,100,0.00,,,-99.99,WeatherLink 5.5,2013-02-17 01:50:00,
2013-02-16 20:55:00,58.8,58.8,30.01,West,270,8.0,21.0,100,0.00,,,-99.99,WeatherLink 5.5,2013-02-17 01:55:00,
2013-02-16 21:00:00,58.5,58.5,30.00,WNW,292,10.0,20.0,100,0.00,,,-99.99,WeatherLink 5.5,2013-02-17 02:00:00,
2013-02-16 21:05:00,58.3,58.3,30.01,West,270,10.0,24.0,100,0.00,,,-99.99,WeatherLink 5.5,2013-02-17 02:05:00,
2013-02-16 21:10:00,58.1,58.1,30.01,West,270,9.0,24.0,100,0.00,,,-99.99,WeatherLink 5.5,2013-02-17 02:10:00,
2013-02-16 21:15:00,57.9,57.9,30.01,WNW,292,6.0,16.0,100,0.00,,,-99.99,WeatherLink 5.5,2013-02-17 02:15:00,
2013-02-16 21:20:00,57.7,57.7,30.01,WNW,292,8.0,17.0,100,0.00,,,-99.99,WeatherLink 5.5,2013-02-17 02:20:00,
2013-02-16 21:25:00,57.5,57.5,30.01,WNW,292,8.0,17.0,100,0.00,,,-99.99,WeatherLink 5.5,2013-02-17 02:25:00,
2013-02-16 21:30:00,57.3,57.3,30.01,West,270,7.0,18.0,100,0.00,,,-99.99,WeatherLink 5.5,2013-02-17 02:30:00,
2013-02-16 21:35:00,57.1,57.1,30.01,West,270,8.0,18.0,100,0.00,,,-99.99,WeatherLink 5.5,2013-02-17 02:35:00,
2013-02-16 21:40:00,57.0,57.0,30.02,WNW,292,10.0,23.0,100,0.00,,,-99.99,WeatherLink 5.5,2013-02-17 02:40:00,
2013-02-16 21:45:00,56.9,56.9,30.02,WNW,292,7.0,17.0,100,0.00,,,-99.99,WeatherLink 5.5,2013-02-17 02:45:00,
2013-02-16 21:50:00,56.7,56.7,30.02,WNW,292,7.0,15.0,100,0.00,,,-99.99,WeatherLink 5.5,2013-02-17 02:50:00,
2013-02-16 21:55:00,56.5,56.5,30.02,WNW,292,5.0,11.0,100,0.00,,,-99.99,WeatherLink 5.5,2013-02-17 02:55:00,
2013-02-16 22:00:00,56.3,56.3,30.02,WNW,292,8.0,17.0,100,0.00,,,-99.99,WeatherLink 5.5,2013-02-17 03:00:00,
2013-02-16 22:05:00,56.3,56.3,30.02,WNW,292,7.0,16.0,100,0.00,,,-99.99,WeatherLink 5.5,2013-02-17 03:05:00,
2013-02-16 22:10:00,56.1,56.1,30.02,WNW,292,7.0,15.0,100,0.00,,,-99.99,WeatherLink 5.5,2013-02-17 03:10:00,
2013-02-16 22:15:00,56.0,56.0,30.03,WNW,292,6.0,12.0,100,0.00,,,-99.99,WeatherLink 5.5,2013-02-17 03:15:00,
2013-02-16 22:20:00,55.9,55.9,30.03,NW,315,6.0,15.0,100,0.00,,,-99.99,WeatherLink 5.5,2013-02-17 03:20:00,
2013-02-16 22:25:00,55.8,55.8,30.03,WNW,292,6.0,14.0,100,0.00,,,-99.99,WeatherLink 5.5,2013-02-17 03:25:00,
2013-02-16 22:30:00,55.6,55.6,30.03,WNW,292,8.0,16.0,100,0.00,,,-99.99,WeatherLink 5.5,2013-02-17 03:30:00,
2013-02-16 22:35:00,55.6,55.6,30.03,WNW,292,8.0,19.0,100,0.00,,,-99.99,WeatherLink 5.5,2013-02-17 03:35:00,
2013-02-16 22:40:00,55.5,55.5,30.04,NW,315,6.0,13.0,100,0.00,,,-99.99,WeatherLink 5.5,2013-02-17 03:40:00,
2013-02-16 22:45:00,55.3,55.3,30.03,WNW,292,5.0,14.0,100,0.00,,,-99.99,WeatherLink 5.5,2013-02-17 03:45:00,
2013-02-16 22:50:00,55.2,55.2,30.03,WNW,292,5.0,12.0,100,0.00,,,-99.99,WeatherLink 5.5,2013-02-17 03:50:00,
2013-02-16 22:55:00,55.1,55.1,30.04,NW,315,7.0,18.0,100,0.00,,,-99.99,WeatherLink 5.5,2013-02-17 03:55:00,
2013-02-16 23:00:00,55.0,55.0,30.04,NW,315,8.0,16.0,100,0.00,,,-99.99,WeatherLink 5.5,2013-02-17 04:00:00,
2013-02-16 23:05:00,54.9,54.9,30.05,NW,315,6.0,14.0,100,0.00,,,-99.99,WeatherLink 5.5,2013-02-17 04:05:00,
2013-02-16 23:10:00,54.7,54.7,30.04,NW,315,7.0,14.0,100,0.00,,,-99.99,WeatherLink 5.5,2013-02-17 04:10:00,
2013-02-16 23:15:00,54.7,54.7,30.04,NW,315,7.0,17.0,100,0.00,,,-99.99,WeatherLink 5.5,2013-02-17 04:15:00,
2013-02-16 23:20:00,54.6,54.6,30.05,WNW,292,5.0,15.0,100,0.00,,,-99.99,WeatherLink 5.5,2013-02-17 04:20:00,
2013-02-16 23:25:00,54.5,54.5,30.05,WNW,292,7.0,16.0,100,0.00,,,-99.99,WeatherLink 5.5,2013-02-17 04:25:00,
2013-02-16 23:30:00,54.5,54.5,30.05,NW,315,8.0,17.0,100,0.00,,,-99.99,WeatherLink 5.5,2013-02-17 04:30:00,
2013-02-16 23:35:00,54.4,54.4,30.04,NW,315,9.0,15.0,100,0.00,,,-99.99,WeatherLink 5.5,2013-02-17 04:35:00,
2013-02-16 23:40:00,54.4,54.4,30.05,WNW,292,7.0,19.0,100,0.00,,,-99.99,WeatherLink 5.5,2013-02-17 04:40:00,
2013-02-16 23:45:00,54.3,54.3,30.05,WNW,292,5.0,13.0,100,0.00,,,-99.99,WeatherLink 5.5,2013-02-17 04:45:00,
2013-02-16 23:50:00,54.2,54.2,30.05,WNW,292,4.0,11.0,100,0.00,,,-99.99,WeatherLink 5.5,2013-02-17 04:50:00,
2013-02-16 23:55:00,54.1,54.1,30.05,NW,315,6.0,14.0,100,0.00,,,-99.99,WeatherLink 5.5,2013-02-17 04:55:00,